[[{"header":{"parameterUnit":"m.s-1","parameterCategory":1,"la1":30.2991,"la2":30.254,"lo1":-89.0895,"lo2":-89.0444,"dy":0.0017,"dx":0.0017,"nx":28,"ny":28,"refTime":"2025-08-24T21:00:00:Z","depth":0,"parameterNumber":2,"parameterNumberName":"U-component_of_WINDS"},"data":[0,0,0,0,0,0,0,0,0,0,0,0,0,0,0,0,0,0,0,0,0,0,0,0,0,0,0,0,0,0,0,0,0,0,0,0,0,0,0,0,0,0,0,0,0,0,0,0,0,0,0,0,0,0,0,0,0,0,-3.3302,-3.3301,0,-3.3209,-3.3208,-3.3207,-3.3138,-3.3138,-3.3137,-3.3137,-3.3038,-3.3036,-3.3034,0,0,0,0,0,0,0,0,0,0,0,0,0,-3.3419,-3.3417,-3.3302,-3.3301,-3.33,-3.3209,-3.3208,-3.3206,-3.3138,-3.3138,-3.3137,-3.3136,-3.3039,-3.3037,-3.3034,0,0,0,0,0,0,0,0,0,0,0,0,0,-3.3351,-3.3417,-3.3302,-3.3255,-3.325,-3.3209,-3.3208,-3.3206,-3.3138,-3.3138,-3.3137,-3.3136,-3.304,-3.3037,-3.3034,-3.3032,0,0,-3.3024,-3.3023,0,0,0,0,0,0,0,0,-3.3355,-3.3347,-3.3263,-3.3258,-3.3252,-3.3184,-3.3213,-3.3148,-3.3139,-3.3181,-3.3136,-3.3135,-3.3088,-3.308,-3.3065,-3.3028,-3.3024,-3.3024,-3.3022,-3.3021,-3.302,0,0,0,0,0,0,0,-3.336,-3.3351,-3.3265,-3.3262,-3.3255,-3.3238,-3.3227,-3.32,-3.314,-3.3177,-3.3172,-3.3162,-3.3084,-3.3068,-3.3062,-3.3022,-3.3024,-3.3021,-3.302,-3.3018,-3.2979,-3.298,0,0,0,0,0,0,-3.3372,-3.3355,-3.3268,-3.3262,-3.3303,-3.3236,-3.3224,-3.3207,-3.314,-3.3129,-3.3163,-3.3159,-3.3074,-3.3066,-3.3058,-3.3051,-3.3021,-3.3018,-3.3016,-3.2978,-3.2979,-3.298,0,0,0,0,0,0,-3.3375,-3.3365,-3.3272,-3.3307,-3.3294,-3.3235,-3.3216,-3.3206,-3.3189,-3.3129,-3.3118,-3.3157,-3.3073,-3.3063,-3.3039,-3.3047,-3.3017,-3.3014,-3.2977,-3.2979,-3.298,-3.3038,0,0,0,0,0,0,-3.3379,-3.3367,-3.3366,-3.3308,-3.3292,-3.3255,-3.3217,-3.3204,-3.3184,-3.3178,-3.3121,-3.3111,-3.3071,-3.3044,-3.3036,-3.3042,-3.3011,-3.2976,-3.2978,-3.2979,-3.3035,-3.3041,-3.3046,0,0,0,0,0,-3.3383,-3.3385,-3.3366,-3.3356,-3.329,-3.3256,-3.3247,-3.3202,-3.3185,-3.3183,-3.3145,-3.3113,-3.3048,-3.3043,-3.3033,-3.3038,-3.2975,-3.2977,-3.2979,-3.3032,-3.304,-3.3046,0,0,0,0,0,0,-3.3444,-3.3377,-3.3355,-3.3338,-3.3303,-3.3244,-3.324,-3.3211,-3.3179,-3.3175,-3.3121,-3.3108,-3.3091,-3.3062,-3.3057,-3.3033,-3.3008,-3.3008,-3.3052,-3.3058,-3.3064,-3.307,-3.3009,0,0,0,0,0,-3.3456,-3.3434,-3.3376,-3.3367,-3.3351,-3.3299,-3.3282,-3.3251,-3.3213,-3.3197,-3.3157,-3.312,-3.3092,-3.3074,-3.3044,-3.3032,-3.3018,-3.303,-3.3036,-3.3041,-3.3041,-3.3031,-3.3036,-3.2986,-3.2986,-3.2986,0,0,-3.3479,-3.344,-3.3429,-3.3379,-3.3348,-3.3326,-3.3287,-3.3265,-3.3248,-3.3193,-3.3169,-3.3139,-3.3094,-3.3076,-3.3066,-3.3052,-3.3052,-3.3043,-3.3048,-3.3044,-3.3034,-3.3039,-3.3043,-3.2987,-3.2987,-3.2987,0,0,-3.351,-3.3479,-3.3468,-3.3438,-3.3393,-3.3359,-3.3357,-3.3302,-3.328,-3.3255,-3.3214,-3.3193,-3.3145,-3.3115,-3.3093,-3.3115,-3.3084,-3.3107,-3.3135,-3.3127,-3.3131,-3.3134,-3.3141,-3.3144,-3.3108,-3.3108,-3.3108,0,-3.3544,-3.351,-3.3465,-3.3446,-3.3425,-3.3377,-3.3364,-3.3338,-3.3285,-3.3271,-3.3257,-3.3196,-3.3162,-3.3136,-3.3142,-3.3127,-3.3122,-3.3112,-3.3134,-3.3137,-3.3139,-3.3145,-3.3148,-3.3111,-3.3111,-3.3111,-3.311,0,-3.3554,-3.3532,-3.3528,-3.3479,-3.3458,-3.3442,-3.3395,-3.3378,-3.335,-3.3318,-3.3293,-3.3252,-3.3213,-3.3205,-3.3176,-3.3175,-3.3167,-3.3145,-3.3117,-3.3148,-3.3152,-3.3154,-3.3116,-3.3114,-3.3114,-3.3113,0,0,-3.3617,-3.3546,-3.3545,-3.3523,-3.347,-3.3451,-3.3435,-3.3398,-3.3384,-3.335,-3.3334,-3.3295,-3.3274,-3.325,-3.3218,-3.3211,-3.323,-3.3189,-3.3187,-3.3196,-3.3225,-3.3241,-3.3244,-3.321,-3.3211,-3.3211,-3.3228,0,-3.3639,-3.3605,-3.3565,-3.3545,-3.3523,-3.3479,-3.3463,-3.343,-3.3399,-3.3376,-3.3342,-3.3315,-3.329,-3.3275,-3.3267,-3.323,-3.3235,-3.3228,-3.3193,-3.3192,-3.3203,-3.3247,-3.3263,-3.3281,-3.323,-3.323,-3.323,0,-3.3658,-3.3628,-3.3606,-3.3556,-3.3545,-3.3533,-3.3496,-3.3475,-3.3436,-3.3414,-3.3388,-3.3355,-3.3334,-3.3312,-3.3282,-3.3279,-3.3263,-3.3243,-3.3242,-3.3235,-3.3211,-3.3239,-3.3286,-3.3288,-3.3233,-3.3233,-3.3232,0,-3.3705,-3.3658,-3.3639,-3.3621,-3.3563,-3.3555,-3.3531,-3.3491,-3.3472,-3.344,-3.3427,-3.3393,-3.3374,-3.3349,-3.3307,-3.3295,-3.3281,-3.3256,-3.3261,-3.3262,-3.3258,-3.3258,-3.3301,-3.3252,-3.3252,-3.3252,-3.3252,0,-3.3731,-3.3719,-3.3659,-3.3647,-3.3632,-3.3587,-3.3574,-3.3545,-3.3511,-3.3492,-3.3452,-3.3435,-3.3382,-3.3359,-3.3326,-3.3306,-3.3298,-3.3279,-3.327,-3.3281,-3.3283,-3.3268,-3.3264,-3.3252,-3.3252,-3.3252,-3.3252,0,-3.3779,-3.3739,-3.3714,-3.3663,-3.3649,-3.3641,-3.3596,-3.3582,-3.3551,-3.3528,-3.352,-3.347,-3.3441,-3.3398,-3.3355,-3.3333,-3.3318,-3.3304,-3.3331,-3.3325,-3.3332,-3.3331,-3.3365,-3.3366,-3.3318,-3.3319,-3.3319,0,-3.3797,-3.3787,-3.3734,-3.3719,-3.3696,-3.3673,-3.3653,-3.3609,-3.3591,-3.3547,-3.3538,-3.3507,-3.3478,-3.3434,-3.3393,-3.3361,-3.3345,-3.336,-3.334,-3.3352,-3.3343,-3.3343,-3.3342,-3.3363,-3.3364,-3.3364,-3.3365,0,-3.3833,-3.3814,-3.3788,-3.3755,-3.3734,-3.3706,-3.3676,-3.3666,-3.3615,-3.3596,-3.3566,-3.3545,-3.3503,-3.3471,-3.3434,-3.3407,-3.3377,-3.3372,-3.3371,-3.3381,-3.3396,-3.3386,-3.3341,-3.3371,-3.337,-3.337,-3.3369,-3.3369,-3.3864,-3.3853,-3.3815,-3.3788,-3.3761,-3.3734,-3.3719,-3.3687,-3.3662,-3.3624,-3.36,-3.3572,-3.3534,-3.348,-3.3456,-3.3433,-3.342,-3.3419,-3.3419,-3.3419,-3.3422,-3.3403,-3.3426,-3.3426,-3.3426,-3.3426,-3.3425,0,-3.3897,-3.387,-3.3846,-3.3806,-3.3785,-3.3761,-3.3727,-3.371,-3.3686,-3.3653,-3.3627,-3.3593,-3.3563,-3.3522,-3.3489,-3.3478,-3.3463,-3.347,-3.3469,-3.3464,-3.3436,-3.3439,-3.3483,-3.3483,-3.3483,-3.3483,-3.3483,-3.3483,-3.3911,-3.389,-3.3868,-3.3834,-3.3807,-3.378,-3.3763,-3.3738,-3.3712,-3.3676,-3.3651,-3.3625,-3.3589,-3.3553,-3.3524,-3.3513,-3.3501,-3.3513,-3.3497,-3.3471,-3.3466,-3.3461,-3.3463,-3.3511,-3.3511,-3.3526,-3.3526,-3.3526]},{"header":{"parameterUnit":"m.s-1","parameterCategory":1,"la1":30.2991,"la2":30.254,"lo1":-89.0895,"lo2":-89.0444,"dy":0.0017,"dx":0.0017,"nx":28,"ny":28,"refTime":"2025-08-24T21:00:00:Z","depth":0,"parameterNumber":3,"parameterNumberName":"V-component_of_WINDS"},"data":[0,0,0,0,0,0,0,0,0,0,0,0,0,0,0,0,0,0,0,0,0,0,0,0,0,0,0,0,0,0,0,0,0,0,0,0,0,0,0,0,0,0,0,0,0,0,0,0,0,0,0,0,0,0,0,0,0,0,2.0218,2.0218,0,2.0234,2.0234,2.0234,2.0268,2.0269,2.0269,2.027,2.0282,2.0281,2.0281,0,0,0,0,0,0,0,0,0,0,0,0,0,2.0216,2.0215,2.0218,2.0218,2.0219,2.0234,2.0234,2.0234,2.0268,2.0269,2.027,2.027,2.0282,2.0281,2.0281,0,0,0,0,0,0,0,0,0,0,0,0,0,2.0222,2.0215,2.0218,2.0237,2.0239,2.0234,2.0234,2.0234,2.0268,2.0269,2.027,2.0271,2.0282,2.0281,2.0281,2.0257,0,0,2.0279,2.0279,0,0,0,0,0,0,0,0,2.0222,2.0222,2.0234,2.0236,2.0238,2.025,2.0237,2.0242,2.0267,2.0257,2.027,2.0271,2.027,2.0271,2.0271,2.0257,2.0258,2.0279,2.0279,2.0279,2.0279,0,0,0,0,0,0,0,2.0221,2.0222,2.0224,2.0235,2.0237,2.0244,2.0247,2.0238,2.0257,2.0258,2.026,2.0262,2.0271,2.0271,2.0272,2.0258,2.0279,2.0279,2.0279,2.0278,2.0226,2.0225,0,0,0,0,0,0,2.0219,2.0221,2.0224,2.0225,2.0233,2.0244,2.0246,2.0245,2.0257,2.026,2.0261,2.0263,2.0272,2.0272,2.0272,2.0245,2.0279,2.0278,2.0278,2.0227,2.0226,2.0225,0,0,0,0,0,0,2.0218,2.0218,2.0223,2.0224,2.0225,2.0243,2.0241,2.0245,2.0245,2.026,2.0263,2.0258,2.0273,2.0273,2.0261,2.0246,2.0278,2.0278,2.0228,2.0227,2.0225,2.019,0,0,0,0,0,0,2.0218,2.0218,2.021,2.0223,2.0225,2.0212,2.024,2.0244,2.0245,2.0248,2.0258,2.026,2.0274,2.0261,2.026,2.0246,2.0277,2.023,2.0228,2.0226,2.0192,2.0187,2.0183,0,0,0,0,0,2.0218,2.0198,2.0209,2.0209,2.0215,2.0211,2.0212,2.0229,2.0243,2.0234,2.0244,2.026,2.0248,2.026,2.0259,2.0244,2.0231,2.0228,2.0226,2.0194,2.0188,2.0183,0,0,0,0,0,0,2.018,2.02,2.0212,2.0196,2.0202,2.0217,2.0206,2.0221,2.0222,2.0225,2.0244,2.0246,2.0231,2.0237,2.025,2.0222,2.0242,2.0239,2.0218,2.0213,2.0208,2.0206,2.0277,0,0,0,0,0,2.017,2.0167,2.0184,2.0168,2.0171,2.0188,2.0187,2.02,2.0206,2.0208,2.0217,2.0221,2.0219,2.0216,2.0214,2.0194,2.0196,2.0183,2.0178,2.0174,2.0171,2.0161,2.0156,2.0217,2.0217,2.0217,0,0,2.0149,2.0159,2.0156,2.0161,2.0167,2.0162,2.019,2.0183,2.018,2.0207,2.0196,2.0203,2.0209,2.0193,2.0186,2.0197,2.0155,2.0171,2.0168,2.0167,2.0158,2.0152,2.0147,2.0215,2.0215,2.0216,0,0,2.0107,2.0115,2.0103,2.0109,2.0119,2.0131,2.0128,2.0141,2.0147,2.0138,2.0158,2.0154,2.0149,2.0153,2.0154,2.0117,2.0131,2.0115,2.0089,2.008,2.0075,2.0071,2.0057,2.0052,2.0113,2.0113,2.0112,0,2.0079,2.0074,2.0095,2.0088,2.009,2.0116,2.0104,2.0108,2.0116,2.0116,2.0128,2.0124,2.0129,2.0115,2.0106,2.0106,2.0103,2.0113,2.0074,2.007,2.0066,2.0054,2.0048,2.0111,2.0111,2.0111,2.0111,0,2.0039,2.0035,2.0024,2.0033,2.0034,2.0024,2.0043,2.0041,2.0054,2.0065,2.0055,2.0063,2.0064,2.0062,2.0074,2.0049,2.0056,2.0071,2.0091,2.0058,2.0047,2.0042,2.0108,2.0108,2.0109,2.0109,0,0,1.9972,1.9994,1.999,1.9994,2.0008,2.0005,1.9997,1.9999,1.9997,2.0002,1.9995,1.9991,2.0006,2.0007,2.002,2.0012,1.9982,2.0028,2.0029,2.0019,1.9955,1.9943,1.9937,1.9992,1.9992,1.9991,1.9954,0,1.9933,1.9921,1.994,1.9923,1.992,1.9947,1.9939,1.9946,1.9957,1.9955,1.9966,1.9963,1.9983,1.9984,1.9977,1.9987,1.9969,1.999,1.9985,1.9985,1.9982,1.9931,1.9918,1.9882,1.995,1.9949,1.9949,0,1.9885,1.989,1.9873,1.9889,1.9888,1.9881,1.9886,1.9884,1.9893,1.9901,1.9904,1.992,1.9913,1.9934,1.9924,1.9938,1.9937,1.9942,1.9941,1.994,1.9964,1.9927,1.9872,1.9866,1.9942,1.9942,1.9943,0,1.9837,1.9839,1.983,1.9833,1.9851,1.9846,1.9853,1.9863,1.9864,1.9868,1.9869,1.9871,1.9872,1.9873,1.989,1.9904,1.9877,1.99,1.9883,1.9882,1.9875,1.9875,1.9817,1.9876,1.9876,1.9876,1.9876,0,1.9791,1.9779,1.9809,1.9803,1.9791,1.9814,1.9801,1.9811,1.982,1.9816,1.9839,1.9834,1.9857,1.9854,1.9867,1.9857,1.9857,1.9863,1.9866,1.986,1.9859,1.9859,1.9861,1.9875,1.9875,1.9875,1.9876,0,1.9734,1.9754,1.9745,1.9764,1.9769,1.9759,1.9775,1.977,1.9783,1.9777,1.9777,1.9797,1.9796,1.9813,1.9814,1.9823,1.9806,1.9814,1.9804,1.9806,1.9788,1.9789,1.9727,1.972,1.9784,1.9783,1.9783,0,1.9703,1.9695,1.9714,1.9714,1.972,1.9719,1.9721,1.9743,1.9744,1.9755,1.9748,1.9749,1.9751,1.9748,1.9762,1.9763,1.9771,1.9749,1.9771,1.9766,1.977,1.977,1.9769,1.9744,1.9743,1.9742,1.9742,0,1.9645,1.9655,1.9657,1.9663,1.9665,1.967,1.9677,1.9675,1.97,1.9699,1.9699,1.9701,1.9704,1.9704,1.9709,1.9716,1.9732,1.9735,1.9731,1.9724,1.9718,1.9721,1.979,1.9736,1.9737,1.9737,1.9737,1.9738,1.9599,1.9594,1.9607,1.9609,1.9617,1.9623,1.9619,1.9633,1.9634,1.9639,1.9652,1.965,1.966,1.9669,1.9674,1.9672,1.9683,1.9677,1.9675,1.9673,1.967,1.972,1.9673,1.9673,1.9673,1.9674,1.9674,0,1.9542,1.9552,1.9554,1.9564,1.9565,1.9583,1.9592,1.9592,1.959,1.9599,1.9601,1.9602,1.9603,1.9618,1.9621,1.9616,1.9624,1.9616,1.9616,1.9617,1.966,1.9663,1.961,1.961,1.961,1.961,1.961,1.961,1.9512,1.9504,1.9517,1.9513,1.9523,1.9523,1.9526,1.9532,1.9539,1.9539,1.9541,1.9551,1.9562,1.9567,1.9569,1.9573,1.9573,1.9562,1.9568,1.9608,1.9614,1.962,1.9623,1.9562,1.9562,1.9526,1.9525,1.9525]}]]